<?xml version="1.0"?>
<gpx xmlns="http://www.topografix.com/GPX/1/1" xmlns:xsi="http://www.w3.org/2001/XMLSchema-instance" version="1.1" creator="GPX RubyGem 1.0.0 -- http://dougfales.github.io/gpx/" xsi:schemaLocation="http://www.topografix.com/GPX/1/1 http://www.topografix.com/GPX/1/1/gpx.xsd">
  <metadata>
    <name/>
    <time>2026-05-07T12:11:43+00:00</time>
    <bound minlat="90.0" minlon="180.0" maxlat="-90.0" maxlon="-180.0"/>
  </metadata>
  <trk>
    <name/>
    <trkseg>
      <trkpt lat="47.214377" lon="12.167978">
        <time>1970-01-01T00:00:00+00:00</time>
        <ele>1094.0</ele>
      </trkpt>
      <trkpt lat="47.214176" lon="12.167824">
        <time>1970-01-01T00:00:00+00:00</time>
        <ele>1094.0</ele>
      </trkpt>
      <trkpt lat="47.214072" lon="12.167834">
        <time>1970-01-01T00:00:00+00:00</time>
        <ele>1093.0</ele>
      </trkpt>
      <trkpt lat="47.213966" lon="12.167811">
        <time>1970-01-01T00:00:00+00:00</time>
        <ele>1094.0</ele>
      </trkpt>
      <trkpt lat="47.213893" lon="12.167843">
        <time>1970-01-01T00:00:00+00:00</time>
        <ele>1093.0</ele>
      </trkpt>
      <trkpt lat="47.21384" lon="12.167844">
        <time>1970-01-01T00:00:00+00:00</time>
        <ele>1094.0</ele>
      </trkpt>
      <trkpt lat="47.213885" lon="12.167913">
        <time>1970-01-01T00:00:00+00:00</time>
        <ele>1092.0</ele>
      </trkpt>
      <trkpt lat="47.213893" lon="12.168051">
        <time>1970-01-01T00:00:00+00:00</time>
        <ele>1091.0</ele>
      </trkpt>
      <trkpt lat="47.213856" lon="12.168205">
        <time>1970-01-01T00:00:00+00:00</time>
        <ele>1090.0</ele>
      </trkpt>
      <trkpt lat="47.213746" lon="12.168349">
        <time>1970-01-01T00:00:00+00:00</time>
        <ele>1088.0</ele>
      </trkpt>
      <trkpt lat="47.213719" lon="12.168486">
        <time>1970-01-01T00:00:00+00:00</time>
        <ele>1088.0</ele>
      </trkpt>
      <trkpt lat="47.213726" lon="12.168712">
        <time>1970-01-01T00:00:00+00:00</time>
        <ele>1087.0</ele>
      </trkpt>
      <trkpt lat="47.213802" lon="12.168977">
        <time>1970-01-01T00:00:00+00:00</time>
        <ele>1086.0</ele>
      </trkpt>
      <trkpt lat="47.213925" lon="12.169292">
        <time>1970-01-01T00:00:00+00:00</time>
        <ele>1086.0</ele>
      </trkpt>
      <trkpt lat="47.213966" lon="12.169263">
        <time>1970-01-01T00:00:00+00:00</time>
        <ele>1086.0</ele>
      </trkpt>
      <trkpt lat="47.213929" lon="12.168961">
        <time>1970-01-01T00:00:00+00:00</time>
        <ele>1086.0</ele>
      </trkpt>
      <trkpt lat="47.213888" lon="12.168882">
        <time>1970-01-01T00:00:00+00:00</time>
        <ele>1086.0</ele>
      </trkpt>
      <trkpt lat="47.213803" lon="12.168823">
        <time>1970-01-01T00:00:00+00:00</time>
        <ele>1086.0</ele>
      </trkpt>
      <trkpt lat="47.213643" lon="12.168784">
        <time>1970-01-01T00:00:00+00:00</time>
        <ele>1086.0</ele>
      </trkpt>
      <trkpt lat="47.213286" lon="12.168592">
        <time>1970-01-01T00:00:00+00:00</time>
        <ele>1082.0</ele>
      </trkpt>
      <trkpt lat="47.213124" lon="12.168504">
        <time>1970-01-01T00:00:00+00:00</time>
        <ele>1081.0</ele>
      </trkpt>
      <trkpt lat="47.212972" lon="12.168423">
        <time>1970-01-01T00:00:00+00:00</time>
        <ele>1082.0</ele>
      </trkpt>
      <trkpt lat="47.212837" lon="12.168346">
        <time>1970-01-01T00:00:00+00:00</time>
        <ele>1084.0</ele>
      </trkpt>
      <trkpt lat="47.212694" lon="12.168314">
        <time>1970-01-01T00:00:00+00:00</time>
        <ele>1085.0</ele>
      </trkpt>
      <trkpt lat="47.212529" lon="12.168333">
        <time>1970-01-01T00:00:00+00:00</time>
        <ele>1085.0</ele>
      </trkpt>
      <trkpt lat="47.211891" lon="12.168551">
        <time>1970-01-01T00:00:00+00:00</time>
        <ele>1074.0</ele>
      </trkpt>
      <trkpt lat="47.211747" lon="12.168577">
        <time>1970-01-01T00:00:00+00:00</time>
        <ele>1072.0</ele>
      </trkpt>
      <trkpt lat="47.211625" lon="12.168568">
        <time>1970-01-01T00:00:00+00:00</time>
        <ele>1071.0</ele>
      </trkpt>
      <trkpt lat="47.211193" lon="12.168368">
        <time>1970-01-01T00:00:00+00:00</time>
        <ele>1071.0</ele>
      </trkpt>
      <trkpt lat="47.210891" lon="12.168278">
        <time>1970-01-01T00:00:00+00:00</time>
        <ele>1076.0</ele>
      </trkpt>
      <trkpt lat="47.210793" lon="12.168248">
        <time>1970-01-01T00:00:00+00:00</time>
        <ele>1079.0</ele>
      </trkpt>
      <trkpt lat="47.210455" lon="12.168428">
        <time>1970-01-01T00:00:00+00:00</time>
        <ele>1087.0</ele>
      </trkpt>
      <trkpt lat="47.210252" lon="12.168581">
        <time>1970-01-01T00:00:00+00:00</time>
        <ele>1084.0</ele>
      </trkpt>
      <trkpt lat="47.210134" lon="12.168621">
        <time>1970-01-01T00:00:00+00:00</time>
        <ele>1081.0</ele>
      </trkpt>
      <trkpt lat="47.209796" lon="12.168586">
        <time>1970-01-01T00:00:00+00:00</time>
        <ele>1074.0</ele>
      </trkpt>
      <trkpt lat="47.209469" lon="12.168485">
        <time>1970-01-01T00:00:00+00:00</time>
        <ele>1076.0</ele>
      </trkpt>
      <trkpt lat="47.209413" lon="12.168467">
        <time>1970-01-01T00:00:00+00:00</time>
        <ele>1078.0</ele>
      </trkpt>
      <trkpt lat="47.209195" lon="12.168193">
        <time>1970-01-01T00:00:00+00:00</time>
        <ele>1092.0</ele>
      </trkpt>
      <trkpt lat="47.209106" lon="12.168109">
        <time>1970-01-01T00:00:00+00:00</time>
        <ele>1096.0</ele>
      </trkpt>
      <trkpt lat="47.208916" lon="12.168069">
        <time>1970-01-01T00:00:00+00:00</time>
        <ele>1100.0</ele>
      </trkpt>
      <trkpt lat="47.208848" lon="12.168097">
        <time>1970-01-01T00:00:00+00:00</time>
        <ele>1102.0</ele>
      </trkpt>
      <trkpt lat="47.208666" lon="12.168253">
        <time>1970-01-01T00:00:00+00:00</time>
        <ele>1104.0</ele>
      </trkpt>
      <trkpt lat="47.208659" lon="12.168215">
        <time>1970-01-01T00:00:00+00:00</time>
        <ele>1105.0</ele>
      </trkpt>
      <trkpt lat="47.20886" lon="12.167859">
        <time>1970-01-01T00:00:00+00:00</time>
        <ele>1110.0</ele>
      </trkpt>
      <trkpt lat="47.208854" lon="12.167814">
        <time>1970-01-01T00:00:00+00:00</time>
        <ele>1112.0</ele>
      </trkpt>
      <trkpt lat="47.208816" lon="12.167792">
        <time>1970-01-01T00:00:00+00:00</time>
        <ele>1115.0</ele>
      </trkpt>
      <trkpt lat="47.207902" lon="12.1687">
        <time>1970-01-01T00:00:00+00:00</time>
        <ele>1121.0</ele>
      </trkpt>
      <trkpt lat="47.207634" lon="12.169013">
        <time>1970-01-01T00:00:00+00:00</time>
        <ele>1131.0</ele>
      </trkpt>
      <trkpt lat="47.207443" lon="12.169351">
        <time>1970-01-01T00:00:00+00:00</time>
        <ele>1141.0</ele>
      </trkpt>
      <trkpt lat="47.207394" lon="12.169406">
        <time>1970-01-01T00:00:00+00:00</time>
        <ele>1144.0</ele>
      </trkpt>
      <trkpt lat="47.207366" lon="12.169382">
        <time>1970-01-01T00:00:00+00:00</time>
        <ele>1147.0</ele>
      </trkpt>
      <trkpt lat="47.207367" lon="12.169299">
        <time>1970-01-01T00:00:00+00:00</time>
        <ele>1148.0</ele>
      </trkpt>
      <trkpt lat="47.207412" lon="12.169149">
        <time>1970-01-01T00:00:00+00:00</time>
        <ele>1149.0</ele>
      </trkpt>
      <trkpt lat="47.207534" lon="12.168945">
        <time>1970-01-01T00:00:00+00:00</time>
        <ele>1143.0</ele>
      </trkpt>
      <trkpt lat="47.20753" lon="12.168911">
        <time>1970-01-01T00:00:00+00:00</time>
        <ele>1145.0</ele>
      </trkpt>
      <trkpt lat="47.207491" lon="12.168933">
        <time>1970-01-01T00:00:00+00:00</time>
        <ele>1148.0</ele>
      </trkpt>
      <trkpt lat="47.207248" lon="12.169264">
        <time>1970-01-01T00:00:00+00:00</time>
        <ele>1159.0</ele>
      </trkpt>
      <trkpt lat="47.207226" lon="12.169259">
        <time>1970-01-01T00:00:00+00:00</time>
        <ele>1161.0</ele>
      </trkpt>
      <trkpt lat="47.207222" lon="12.169229">
        <time>1970-01-01T00:00:00+00:00</time>
        <ele>1163.0</ele>
      </trkpt>
      <trkpt lat="47.207317" lon="12.169023">
        <time>1970-01-01T00:00:00+00:00</time>
        <ele>1160.0</ele>
      </trkpt>
      <trkpt lat="47.20731" lon="12.168986">
        <time>1970-01-01T00:00:00+00:00</time>
        <ele>1161.0</ele>
      </trkpt>
      <trkpt lat="47.207135" lon="12.169136">
        <time>1970-01-01T00:00:00+00:00</time>
        <ele>1175.0</ele>
      </trkpt>
      <trkpt lat="47.207052" lon="12.169182">
        <time>1970-01-01T00:00:00+00:00</time>
        <ele>1182.0</ele>
      </trkpt>
      <trkpt lat="47.206976" lon="12.169336">
        <time>1970-01-01T00:00:00+00:00</time>
        <ele>1185.0</ele>
      </trkpt>
      <trkpt lat="47.206886" lon="12.16974">
        <time>1970-01-01T00:00:00+00:00</time>
        <ele>1194.0</ele>
      </trkpt>
      <trkpt lat="47.206872" lon="12.169875">
        <time>1970-01-01T00:00:00+00:00</time>
        <ele>1196.0</ele>
      </trkpt>
      <trkpt lat="47.206932" lon="12.1702">
        <time>1970-01-01T00:00:00+00:00</time>
        <ele>1196.0</ele>
      </trkpt>
      <trkpt lat="47.207017" lon="12.170377">
        <time>1970-01-01T00:00:00+00:00</time>
        <ele>1191.0</ele>
      </trkpt>
      <trkpt lat="47.207061" lon="12.17053">
        <time>1970-01-01T00:00:00+00:00</time>
        <ele>1189.0</ele>
      </trkpt>
      <trkpt lat="47.207168" lon="12.170677">
        <time>1970-01-01T00:00:00+00:00</time>
        <ele>1179.0</ele>
      </trkpt>
      <trkpt lat="47.207269" lon="12.170938">
        <time>1970-01-01T00:00:00+00:00</time>
        <ele>1174.0</ele>
      </trkpt>
      <trkpt lat="47.207306" lon="12.170979">
        <time>1970-01-01T00:00:00+00:00</time>
        <ele>1172.0</ele>
      </trkpt>
      <trkpt lat="47.207363" lon="12.171046">
        <time>1970-01-01T00:00:00+00:00</time>
        <ele>1170.0</ele>
      </trkpt>
      <trkpt lat="47.207393" lon="12.171091">
        <time>1970-01-01T00:00:00+00:00</time>
        <ele>1170.0</ele>
      </trkpt>
      <trkpt lat="47.207393" lon="12.171091">
        <time>1970-01-01T00:00:00+00:00</time>
        <ele>1170.0</ele>
      </trkpt>
      <trkpt lat="47.207363" lon="12.171046">
        <time>1970-01-01T00:00:00+00:00</time>
        <ele>1170.0</ele>
      </trkpt>
      <trkpt lat="47.207306" lon="12.170979">
        <time>1970-01-01T00:00:00+00:00</time>
        <ele>1172.0</ele>
      </trkpt>
      <trkpt lat="47.207269" lon="12.170938">
        <time>1970-01-01T00:00:00+00:00</time>
        <ele>1174.0</ele>
      </trkpt>
      <trkpt lat="47.207168" lon="12.170677">
        <time>1970-01-01T00:00:00+00:00</time>
        <ele>1179.0</ele>
      </trkpt>
      <trkpt lat="47.207061" lon="12.17053">
        <time>1970-01-01T00:00:00+00:00</time>
        <ele>1189.0</ele>
      </trkpt>
      <trkpt lat="47.207017" lon="12.170377">
        <time>1970-01-01T00:00:00+00:00</time>
        <ele>1191.0</ele>
      </trkpt>
      <trkpt lat="47.206932" lon="12.1702">
        <time>1970-01-01T00:00:00+00:00</time>
        <ele>1196.0</ele>
      </trkpt>
      <trkpt lat="47.206872" lon="12.169875">
        <time>1970-01-01T00:00:00+00:00</time>
        <ele>1196.0</ele>
      </trkpt>
      <trkpt lat="47.206886" lon="12.16974">
        <time>1970-01-01T00:00:00+00:00</time>
        <ele>1194.0</ele>
      </trkpt>
      <trkpt lat="47.206976" lon="12.169336">
        <time>1970-01-01T00:00:00+00:00</time>
        <ele>1185.0</ele>
      </trkpt>
      <trkpt lat="47.207052" lon="12.169182">
        <time>1970-01-01T00:00:00+00:00</time>
        <ele>1182.0</ele>
      </trkpt>
      <trkpt lat="47.207135" lon="12.169136">
        <time>1970-01-01T00:00:00+00:00</time>
        <ele>1175.0</ele>
      </trkpt>
      <trkpt lat="47.20731" lon="12.168986">
        <time>1970-01-01T00:00:00+00:00</time>
        <ele>1161.0</ele>
      </trkpt>
      <trkpt lat="47.207317" lon="12.169023">
        <time>1970-01-01T00:00:00+00:00</time>
        <ele>1160.0</ele>
      </trkpt>
      <trkpt lat="47.207222" lon="12.169229">
        <time>1970-01-01T00:00:00+00:00</time>
        <ele>1163.0</ele>
      </trkpt>
      <trkpt lat="47.207226" lon="12.169259">
        <time>1970-01-01T00:00:00+00:00</time>
        <ele>1161.0</ele>
      </trkpt>
      <trkpt lat="47.207248" lon="12.169264">
        <time>1970-01-01T00:00:00+00:00</time>
        <ele>1159.0</ele>
      </trkpt>
      <trkpt lat="47.207491" lon="12.168933">
        <time>1970-01-01T00:00:00+00:00</time>
        <ele>1148.0</ele>
      </trkpt>
      <trkpt lat="47.20753" lon="12.168911">
        <time>1970-01-01T00:00:00+00:00</time>
        <ele>1145.0</ele>
      </trkpt>
      <trkpt lat="47.207534" lon="12.168945">
        <time>1970-01-01T00:00:00+00:00</time>
        <ele>1143.0</ele>
      </trkpt>
      <trkpt lat="47.207412" lon="12.169149">
        <time>1970-01-01T00:00:00+00:00</time>
        <ele>1149.0</ele>
      </trkpt>
      <trkpt lat="47.207367" lon="12.169299">
        <time>1970-01-01T00:00:00+00:00</time>
        <ele>1148.0</ele>
      </trkpt>
      <trkpt lat="47.207366" lon="12.169382">
        <time>1970-01-01T00:00:00+00:00</time>
        <ele>1147.0</ele>
      </trkpt>
      <trkpt lat="47.207394" lon="12.169406">
        <time>1970-01-01T00:00:00+00:00</time>
        <ele>1144.0</ele>
      </trkpt>
      <trkpt lat="47.207443" lon="12.169351">
        <time>1970-01-01T00:00:00+00:00</time>
        <ele>1141.0</ele>
      </trkpt>
      <trkpt lat="47.207634" lon="12.169013">
        <time>1970-01-01T00:00:00+00:00</time>
        <ele>1131.0</ele>
      </trkpt>
      <trkpt lat="47.207902" lon="12.1687">
        <time>1970-01-01T00:00:00+00:00</time>
        <ele>1121.0</ele>
      </trkpt>
      <trkpt lat="47.208816" lon="12.167792">
        <time>1970-01-01T00:00:00+00:00</time>
        <ele>1115.0</ele>
      </trkpt>
      <trkpt lat="47.208854" lon="12.167814">
        <time>1970-01-01T00:00:00+00:00</time>
        <ele>1112.0</ele>
      </trkpt>
      <trkpt lat="47.20886" lon="12.167859">
        <time>1970-01-01T00:00:00+00:00</time>
        <ele>1110.0</ele>
      </trkpt>
      <trkpt lat="47.208659" lon="12.168215">
        <time>1970-01-01T00:00:00+00:00</time>
        <ele>1105.0</ele>
      </trkpt>
      <trkpt lat="47.208666" lon="12.168253">
        <time>1970-01-01T00:00:00+00:00</time>
        <ele>1104.0</ele>
      </trkpt>
      <trkpt lat="47.208848" lon="12.168097">
        <time>1970-01-01T00:00:00+00:00</time>
        <ele>1102.0</ele>
      </trkpt>
      <trkpt lat="47.208916" lon="12.168069">
        <time>1970-01-01T00:00:00+00:00</time>
        <ele>1100.0</ele>
      </trkpt>
      <trkpt lat="47.209106" lon="12.168109">
        <time>1970-01-01T00:00:00+00:00</time>
        <ele>1096.0</ele>
      </trkpt>
      <trkpt lat="47.209195" lon="12.168193">
        <time>1970-01-01T00:00:00+00:00</time>
        <ele>1092.0</ele>
      </trkpt>
      <trkpt lat="47.209413" lon="12.168467">
        <time>1970-01-01T00:00:00+00:00</time>
        <ele>1078.0</ele>
      </trkpt>
      <trkpt lat="47.209469" lon="12.168485">
        <time>1970-01-01T00:00:00+00:00</time>
        <ele>1076.0</ele>
      </trkpt>
      <trkpt lat="47.209796" lon="12.168586">
        <time>1970-01-01T00:00:00+00:00</time>
        <ele>1074.0</ele>
      </trkpt>
      <trkpt lat="47.210134" lon="12.168621">
        <time>1970-01-01T00:00:00+00:00</time>
        <ele>1081.0</ele>
      </trkpt>
      <trkpt lat="47.210252" lon="12.168581">
        <time>1970-01-01T00:00:00+00:00</time>
        <ele>1084.0</ele>
      </trkpt>
      <trkpt lat="47.210455" lon="12.168428">
        <time>1970-01-01T00:00:00+00:00</time>
        <ele>1087.0</ele>
      </trkpt>
      <trkpt lat="47.210793" lon="12.168248">
        <time>1970-01-01T00:00:00+00:00</time>
        <ele>1079.0</ele>
      </trkpt>
      <trkpt lat="47.210891" lon="12.168278">
        <time>1970-01-01T00:00:00+00:00</time>
        <ele>1076.0</ele>
      </trkpt>
      <trkpt lat="47.211193" lon="12.168368">
        <time>1970-01-01T00:00:00+00:00</time>
        <ele>1071.0</ele>
      </trkpt>
      <trkpt lat="47.211625" lon="12.168568">
        <time>1970-01-01T00:00:00+00:00</time>
        <ele>1071.0</ele>
      </trkpt>
      <trkpt lat="47.211747" lon="12.168577">
        <time>1970-01-01T00:00:00+00:00</time>
        <ele>1072.0</ele>
      </trkpt>
      <trkpt lat="47.211891" lon="12.168551">
        <time>1970-01-01T00:00:00+00:00</time>
        <ele>1074.0</ele>
      </trkpt>
      <trkpt lat="47.212529" lon="12.168333">
        <time>1970-01-01T00:00:00+00:00</time>
        <ele>1085.0</ele>
      </trkpt>
      <trkpt lat="47.212694" lon="12.168314">
        <time>1970-01-01T00:00:00+00:00</time>
        <ele>1085.0</ele>
      </trkpt>
      <trkpt lat="47.212837" lon="12.168346">
        <time>1970-01-01T00:00:00+00:00</time>
        <ele>1084.0</ele>
      </trkpt>
      <trkpt lat="47.212972" lon="12.168423">
        <time>1970-01-01T00:00:00+00:00</time>
        <ele>1082.0</ele>
      </trkpt>
      <trkpt lat="47.213124" lon="12.168504">
        <time>1970-01-01T00:00:00+00:00</time>
        <ele>1081.0</ele>
      </trkpt>
      <trkpt lat="47.213286" lon="12.168592">
        <time>1970-01-01T00:00:00+00:00</time>
        <ele>1082.0</ele>
      </trkpt>
      <trkpt lat="47.213643" lon="12.168784">
        <time>1970-01-01T00:00:00+00:00</time>
        <ele>1086.0</ele>
      </trkpt>
      <trkpt lat="47.213803" lon="12.168823">
        <time>1970-01-01T00:00:00+00:00</time>
        <ele>1086.0</ele>
      </trkpt>
      <trkpt lat="47.213888" lon="12.168882">
        <time>1970-01-01T00:00:00+00:00</time>
        <ele>1086.0</ele>
      </trkpt>
      <trkpt lat="47.213929" lon="12.168961">
        <time>1970-01-01T00:00:00+00:00</time>
        <ele>1086.0</ele>
      </trkpt>
      <trkpt lat="47.213966" lon="12.169263">
        <time>1970-01-01T00:00:00+00:00</time>
        <ele>1086.0</ele>
      </trkpt>
      <trkpt lat="47.213925" lon="12.169292">
        <time>1970-01-01T00:00:00+00:00</time>
        <ele>1086.0</ele>
      </trkpt>
      <trkpt lat="47.213802" lon="12.168977">
        <time>1970-01-01T00:00:00+00:00</time>
        <ele>1086.0</ele>
      </trkpt>
      <trkpt lat="47.213726" lon="12.168712">
        <time>1970-01-01T00:00:00+00:00</time>
        <ele>1087.0</ele>
      </trkpt>
      <trkpt lat="47.213719" lon="12.168486">
        <time>1970-01-01T00:00:00+00:00</time>
        <ele>1088.0</ele>
      </trkpt>
      <trkpt lat="47.213746" lon="12.168349">
        <time>1970-01-01T00:00:00+00:00</time>
        <ele>1088.0</ele>
      </trkpt>
      <trkpt lat="47.213856" lon="12.168205">
        <time>1970-01-01T00:00:00+00:00</time>
        <ele>1090.0</ele>
      </trkpt>
      <trkpt lat="47.213893" lon="12.168051">
        <time>1970-01-01T00:00:00+00:00</time>
        <ele>1091.0</ele>
      </trkpt>
      <trkpt lat="47.213885" lon="12.167913">
        <time>1970-01-01T00:00:00+00:00</time>
        <ele>1092.0</ele>
      </trkpt>
      <trkpt lat="47.21384" lon="12.167844">
        <time>1970-01-01T00:00:00+00:00</time>
        <ele>1094.0</ele>
      </trkpt>
      <trkpt lat="47.213893" lon="12.167843">
        <time>1970-01-01T00:00:00+00:00</time>
        <ele>1093.0</ele>
      </trkpt>
      <trkpt lat="47.213966" lon="12.167811">
        <time>1970-01-01T00:00:00+00:00</time>
        <ele>1094.0</ele>
      </trkpt>
      <trkpt lat="47.214072" lon="12.167834">
        <time>1970-01-01T00:00:00+00:00</time>
        <ele>1093.0</ele>
      </trkpt>
      <trkpt lat="47.214176" lon="12.167824">
        <time>1970-01-01T00:00:00+00:00</time>
        <ele>1094.0</ele>
      </trkpt>
      <trkpt lat="47.214377" lon="12.167978">
        <time>1970-01-01T00:00:00+00:00</time>
        <ele>1094.0</ele>
      </trkpt>
    </trkseg>
  </trk>
</gpx>
